Regional Weather Roundup
Issued by NWS

Home | Current Version | Previous Version | Text Only | Print | Product List | Glossary Off
Versions: 1 2 3 4 5 6 7 8 9 10 11 12 13 14 15 16 17 18 19 20 21 22 23 24 25 26 27

000
ASUS45 KBOU 191910
RWRCO

WEATHER ROUNDUP FOR COLORADO
NATIONAL WEATHER SERVICE DENVER/BOULDER CO
1200 PM MST SUN NOV 19 2017

NOTE: "FAIR" INDICATES FEW OR NO CLOUDS BELOW 12000 FEET WITH NO
SIGNIFICANT WEATHER AND/OR OBSTRUCTIONS TO VISIBILITY.

COZ001>005-013-030-031-192000-
...NORTHWEST COLORADO...

CITY           SKY/WX    TMP DP  RH WIND       PRES   REMARKS
CRAIG          FAIR      30  19  63 SW5       30.26F WCI  25
HAYDEN         FAIR      29  19  66 SW6       30.26F WCI  23
MEEKER         FAIR      31  19  61 S3        30.25F
RABBIT EARS PA FAIR      28  14  54 W7        30.25F WCI  21
STEAMBOAT SPGS FAIR      29  17  61 CALM      30.24F
WALDEN         FAIR      30  14  51 S8        30.23F WCI  23
$$

COZ006>008-011-192000-
...WEST CENTRAL VALLEYS...

CITY           SKY/WX    TMP DP  RH WIND       PRES   REMARKS
GRAND JUNCTION FAIR      39  17  41 CALM      30.33F
MONTROSE       FAIR      38  18  44 N3        30.32F
EAGLE          FAIR      30  15  53 CALM      30.33
RIFLE          FAIR      33  18  53 CALM      30.31F
DELTA          FAIR      40  16  36 CALM      30.31F
NUCLA          FAIR      37  12  35 CALM      30.35F
$$

COZ017>023-064>068-192000-
...SOUTHWEST COLORADO...

CITY           SKY/WX    TMP DP  RH WIND       PRES   REMARKS
DURANGO        FAIR      44  15  31 CALM      30.28F
CORTEZ         FAIR      44  13  28 SW6       30.29F
PAGOSA SPRINGS FAIR      44   6  21 CALM      30.28F
TELLURIDE      FAIR      45  -5  12 W3        30.31F
WOLF CREEK PAS FAIR      30   5  34 SW8       30.40F WCI  23
$$

COZ009-010-012-014-032>034-037-058>063-192000-
...CENTRAL COLORADO...

CITY           SKY/WX    TMP DP  RH WIND       PRES   REMARKS
ASPEN          FAIR      34  18  52 N5        30.25F WCI  30
BUENA VISTA    FAIR      40   3  21 CALM      30.24F
COPPER MTN     FAIR      30  -6  21 MISG      30.31F
BERTHOUD PASS  FAIR      21  10  63 NW30G40   30.25F WCI   3
COTTONWOOD PAS FAIR      41  -8  12 N8        30.27F
GUNNISON       FAIR      24  13  62 CALM      30.36F
KREMMLING      FAIR      34  19  55 CALM      30.30F
LEADVILLE      FAIR      34   6  31 W5        30.26F WCI  30
MONARCH PASS   FAIR      25  -4  28 W30G36    30.41F WCI   8
SALIDA         FAIR      44   8  23 NW5       30.30F
SUNLIGHT       FAIR      32   3  29 SW12G20   30.34F WCI  23
WILKERSON PASS FAIR      32   0  25 W12G21    30.28F WCI  23
$$

COZ069>075-192000-
...SAN LUIS VALLEY/SANGRE DE CRISTO MOUNTAINS...

CITY           SKY/WX    TMP DP  RH WIND       PRES   REMARKS
ALAMOSA        FAIR      40  13  33 VRB3      30.28F
DEL NORTE      FAIR      42   8  24 E5        30.29F
LA VETA PASS   FAIR      34   7  32 SW28G37     N/A  WCI  20
SAGUACHE       FAIR      37   9  30 S6        30.29F
$$

COZ035-036-038>040-192000-
...NORTHERN COLORADO FRONT RANGE...

CITY           SKY/WX    TMP DP  RH WIND       PRES   REMARKS
DENVER INTL AP PTSUNNY   58   9  14 S8        30.06F
DMNS CITY PARK   N/A     58   7  13 SE9G17    30.05F
AURORA         PTSUNNY   57  10  15 SW9       30.07F
FRONT RANGE AP PTSUNNY   59  14  17 S8        30.08F
ERIE MUNI ARPT FAIR      52  21  30 CALM      30.11F
BOULDER MUN AP FAIR      50  23  34 CALM      30.06F
CENTENNIAL     PTSUNNY   56  12  17 SW12      30.08F
BROOMFIELD     PTSUNNY   57  12  17 SE8       30.07F
FORT COLLINS   FAIR      50  18  28 CALM      30.06F
LONGMONT       FAIR      54  21  27 CALM      30.07F
$$

COZ041-046-047-076>085-087-088-192000-
...PIKES PEAK/PALMER DIVIDE AND SOUTHERN FOOTHILLS...

CITY           SKY/WX    TMP DP  RH WIND       PRES   REMARKS
COLO. SPRINGS  PTSUNNY   52  10  18 SW8       30.12F
A. F. ACADEMY  FAIR      54   6  14 S8        30.10F
SCHRIEVER AFB  FAIR      52  10  18 SW7       30.12F
CHEYENNE MTN   FAIR      51  14  22 SE5       30.08F
ELLICOTT       NOT AVBL
FALCON         FAIR      56   1  11 SW7       30.14F
FORT CARSON    FAIR      54  11  18 SE3       30.09F
LIMON          FAIR      58   7  13 SW8       30.09F
MONUMENT HILL  FAIR      52   9  17 SW9       30.14F
CANON CITY     FAIR      61   9  12 W10       30.10F
WALSENBURG     FAIR      61  10  13 W12G18    30.12F
TRINIDAD       FAIR      56  13  18 SE3       30.13F
$$

COZ042>045-048>051-090-091-192000-
...NORTHEAST COLORADO...

CITY           SKY/WX    TMP DP  RH WIND       PRES   REMARKS
GREELEY ARPT   FAIR      48  20  32 CALM      30.06F
AKRON          FAIR      52  18  26 W12       30.06F
BURLINGTON     FAIR      56  16  20 SW16      30.08F
WRAY           NOT AVBL
YUMA           FAIR      52  18  25 W7        30.06F
STERLING       FAIR      46  25  42 SW9       30.05F
HOLYOKE        FAIR      61  14  16 W10G16    30.04F
FORT MORGAN    FAIR      48  18  30 SW8       30.07F
$$

COZ086-089-092>099-192000-
...SOUTHEAST COLORADO...

CITY           SKY/WX    TMP DP  RH WIND       PRES   REMARKS
PUEBLO         FAIR      53  19  26 SE6       30.10F
LA JUNTA       FAIR      55  20  25 SW9       30.11F
LAMAR          FAIR      57  17  21 W10       30.10F
SPRINGFIELD      N/A     59  15  18 S9        30.12F
$$




USA.gov is the U.S. government's official web portal to all federal, state and local government web resources and services.